User: anonymous   Login
Location: Unspecified
(0.0000°N, 0.0000°E)
Time: 19:19:22
(UTC+00:00)
Language:

ONEWEB-0628 - Orbit

View from above orbital plane
View from above orbital plane
View from above satellite
View from above satellite

Ground track
Ground track

The orbit is defined by the following mean orbital elements,

1 55169U          26145.30517346 +.00000000 +00000-0 -10822-2 0 00002
2 55169  87.8959 355.2035 0002465  91.1961 268.9450 13.12443044    01
Epoch (UTC): 25 May 2026 07:19:26
Eccentricity: 0.0002465
inclination: 87.8959°
perigee height: 1212 km
apogee height: 1216 km
right ascension of ascending node: 355.2035°
argument of perigee: 91.1961°
revolutions per day: 13.12443044
mean anomaly at epoch: 268.9450°

The dashed part of the orbit path shows where the satellite is in the earth's shadow,  

DLR